Location: Las Vegas
(36.1750°N, 115.1360°W)
Time: 00:52:38
(UTC-08:00)

Amateur Radio Satellites - All Passes

Search period start: 27 February 2017 00:22
Search period end: 28 February 2017 00:22
Location: Las Vegas, 36.1750°N, 115.1360°W

Satellite Date Start Highest point End Downlink Frequencies (MHz)
Time Altitude Azimuth
SRMSAT 27 Feb 00:24:46 00:28:17 16° 181° (S) 00:31:50 437.500
UKube-1 27 Feb 00:25:36 00:29:37 39° 261° (W) 00:33:40 .
SPROUT 27 Feb 00:27:57 00:30:18 14° 267° (W) 00:32:39 437.525
VELOX 1 27 Feb 00:35:55 00:36:13 10° 269° (W) 00:36:31 145.980
PCSat 27 Feb 00:36:30 00:41:55 67° 62° (ENE) 00:47:18 145.827
NO-84 27 Feb 00:46:31 00:49:27 18° 237° (WSW) 00:52:26 435.350 FM
Gurwin Techsat 1B 27 Feb 00:48:55 00:53:21 26° 96° (E) 00:57:45 435.225
ITUPSAT 1 27 Feb 01:11:27 01:15:51 37° 71° (ENE) 01:20:16 437.325
BEESAT 27 Feb 01:16:39 01:21:09 43° 72° (ENE) 01:25:41 436.000
MOZHAYETS 4 27 Feb 01:22:40 01:25:33 17° 66° (ENE) 01:28:27
Oscar 19 27 Feb 01:27:58 01:33:03 68° 286° (WNW) 01:38:08 437.125/150
RS-15 27 Feb 01:36:43 01:49:03 71° 57° (ENE) 02:00:46 29.354- 29.394
ITAMSAT 1 27 Feb 02:06:26 02:10:41 25° 96° (E) 02:14:53 435.822/435.867
SRMSAT 27 Feb 02:14:26 02:16:40 12° 191° (SSW) 02:18:54 437.500
PCSat 27 Feb 02:21:58 02:24:40 14° 257° (WSW) 02:27:21 145.827
AO-85 27 Feb 02:22:27 02:26:18 26° 113° (ESE) 02:29:56 145.980
CUBESAT XI-V 27 Feb 02:28:14 02:30:09 12° 65° (ENE) 02:32:04 437.345
Gurwin Techsat 1B 27 Feb 02:28:31 02:33:16 34° 291° (WNW) 02:38:00 435.225
AO-7 27 Feb 02:36:08 02:43:46 39° 100° (E) 02:51:20 .
ITUPSAT 1 27 Feb 02:50:15 02:53:45 20° 265° (W) 02:57:16 437.325
BEESAT 27 Feb 02:55:59 02:59:05 17° 266° (W) 03:02:11 436.000
MOZHAYETS 4 27 Feb 02:57:54 03:02:19 44° 261° (W) 03:06:46
KKS-1 27 Feb 03:14:25 03:18:47 69° 76° (ENE) 03:23:12 437.445
M-CUBED/EXP-1 PRIME 27 Feb 03:31:59 03:34:41 24° 67° (ENE) 03:37:22 437.505
STARS 27 Feb 03:42:57 03:47:14 61° 74° (ENE) 03:51:34 437.465
ITAMSAT 1 27 Feb 03:45:26 03:50:09 35° 291° (WNW) 03:54:51 435.822/435.867
RS-15 27 Feb 03:50:36 04:00:25 30° 257° (WSW) 04:09:55 29.354- 29.394
BEESAT 3 27 Feb 04:00:51 04:02:49 14° 109° (ESE) 04:04:48 437.485
CUBESAT XI-V 27 Feb 04:02:23 04:06:59 60° 259° (W) 04:11:35 437.345
AO-85 27 Feb 04:02:39 04:06:36 28° 306° (NW) 04:10:21 145.980
AO-7 27 Feb 04:28:49 04:36:29 43° 296° (WNW) 04:44:07 .
DOVE 4 27 Feb 04:34:23 04:36:43 13° 92° (E) 04:39:06 437.250
BEESAT 2 27 Feb 04:43:01 04:45:31 16° 110° (ESE) 04:48:02 435.950
LilacSat-2 27 Feb 04:45:00 04:46:04 11° 92° (E) 04:47:09 437.200
Tancredo 1 27 Feb 05:06:06 05:07:00 11° 127° (SE) 05:07:55 437.200
M-CUBED/EXP-1 PRIME 27 Feb 05:07:35 05:09:12 13° 260° (W) 05:10:48 437.505
CUTE-I 27 Feb 05:08:13 05:12:32 24° 95° (E) 05:16:48 437.470
SO-50 27 Feb 05:13:46 05:16:54 18° 48° (NE) 05:20:01 436.795
STRAND 1 27 Feb 05:17:23 05:21:15 22° 66° (ENE) 05:25:07 437.568
KAITUO 1B 27 Feb 05:29:53 05:33:19 32° 98° (E) 05:36:41 145.475/437.950
BEESAT 3 27 Feb 05:36:21 05:40:01 40° 304° (WNW) 05:43:46 437.485
XW-2F 27 Feb 05:37:54 05:41:38 52° 100° (E) 05:45:18 145.980 - 146.000
XW-2D 27 Feb 05:43:48 05:47:36 68° 101° (E) 05:51:21 145.860 - 145.880
XW-2B 27 Feb 05:48:52 05:52:42 77° 101° (ESE) 05:56:29 145.730 - 145.750
XW-2C 27 Feb 05:57:37 06:01:27 79° 281° (WNW) 06:05:13 145.795 - 145.815
NUDT-PHONESAT 27 Feb 06:01:59 06:05:45 86° 282° (WNW) 06:09:29 437.300
DOVE 4 27 Feb 06:09:53 06:14:36 59° 285° (WNW) 06:19:36 437.250
LilacSat-2 27 Feb 06:16:55 06:20:32 41° 286° (WNW) 06:24:07 437.200
ISS 27 Feb 06:19:12 06:22:29 76° 136° (SE) 06:25:46 437.550
BEESAT 2 27 Feb 06:19:21 06:22:58 34° 305° (NW) 06:26:39 435.950
CUBEBUG 2 27 Feb 06:35:01 06:36:49 12° 90° (E) 06:38:38 437.445
Tancredo 1 27 Feb 06:39:40 06:42:52 58° 321° (NW) 06:46:06 437.200
XW-2A 27 Feb 06:41:39 06:45:00 45° 99° (E) 06:48:19 145.665 - 145.685
HO-68 27 Feb 06:44:51 06:51:32 41° 99° (E) 06:58:11 435.675
SEEDS 27 Feb 06:46:37 06:49:52 22° 95° (E) 06:53:06 437.485
CUTE-I 27 Feb 06:47:42 06:52:37 38° 290° (WNW) 06:57:31 437.470
SO-50 27 Feb 06:53:17 06:57:35 46° 245° (WSW) 07:01:51 436.795
STRAND 1 27 Feb 06:55:19 07:00:07 40° 261° (W) 07:04:57 437.568
KAITUO 1B 27 Feb 07:05:02 07:07:00 14° 292° (WNW) 07:08:57 145.475/437.950
UWE-3 27 Feb 07:06:52 07:09:51 17° 92° (E) 07:12:46 435.000/436.395/437.385
ZACube-1 27 Feb 07:23:28 07:25:52 14° 92° (E) 07:28:14 437.345
CUTE 1.7 + AOD 2 27 Feb 07:28:19 07:32:30 70° 284° (WNW) 07:36:40 437.475
PRISM 27 Feb 07:30:32 07:33:18 18° 68° (ENE) 07:36:03 437.425
O/OREOS (USA 219) 27 Feb 07:32:14 07:36:42 49° 67° (ENE) 07:41:08 437.305
FO-29 27 Feb 07:48:10 07:51:23 13° 55° (NE) 07:54:40 435.910
ISS 27 Feb 07:57:19 07:59:17 15° 334° (NNW) 08:01:15 437.550
YUBILEINY 27 Feb 08:02:17 08:06:51 15° 78° (ENE) 08:11:23 435.215
AAUSAT CUBESAT 2 27 Feb 08:04:09 08:08:16 87° 287° (WNW) 08:12:21 437.432
AO-73 27 Feb 08:09:04 08:13:23 43° 98° (E) 08:17:34 145.935
CUBEBUG 2 27 Feb 08:09:05 08:13:47 59° 285° (WNW) 08:18:22 437.445
Oscar 11 27 Feb 08:13:02 08:17:07 40° 98° (E) 08:21:09 .
Tancredo 1 27 Feb 08:18:53 08:19:43 11° 338° (NNW) 08:20:32 437.200
TIGRISAT 27 Feb 08:19:23 08:23:05 25° 69° (ENE) 08:26:51 435.000
UNISAT 6 27 Feb 08:19:39 08:23:28 28° 70° (ENE) 08:27:21 437.425
SEEDS 27 Feb 08:22:04 08:25:29 25° 289° (WNW) 08:28:52 437.485
HO-68 27 Feb 08:32:47 08:39:03 34° 295° (WNW) 08:45:19 435.675
UWE-3 27 Feb 08:42:04 08:46:26 41° 287° (WNW) 08:50:42 435.000/436.395/437.385
ZACube-1 27 Feb 08:58:02 09:02:22 45° 287° (WNW) 09:06:36 437.345
PRISM 27 Feb 09:04:44 09:08:20 30° 262° (W) 09:11:57 437.425
O/OREOS (USA 219) 27 Feb 09:13:23 09:15:37 13° 261° (W) 09:17:50 437.305
DELFI C3 27 Feb 09:17:04 09:20:59 71° 101° (E) 09:24:53 145.870
AIST 2D 27 Feb 09:20:46 09:22:24 13° 68° (ENE) 09:24:02 435.315
FO-29 27 Feb 09:27:49 09:34:53 72° 73° (ENE) 09:42:37 435.910
AO-73 27 Feb 09:46:29 09:49:11 16° 294° (WNW) 09:51:51 145.935
Oscar 11 27 Feb 09:50:20 09:52:52 15° 293° (WNW) 09:55:24 .
YUBILEINY 27 Feb 09:53:29 10:02:19 90° 31° (NNE) 10:11:10 435.215
TIGRISAT 27 Feb 09:55:51 09:59:38 26° 264° (W) 10:03:30 435.000
UNISAT 6 27 Feb 09:56:25 10:00:05 24° 265° (W) 10:03:50 437.425
DUCHIFAT 1 27 Feb 10:13:28 10:17:13 33° 72° (ENE) 10:21:00 145.980
EO-79 27 Feb 10:26:34 10:30:42 58° 75° (ENE) 10:34:53 145.935-145.965
ESTCUBE 1 27 Feb 10:32:41 10:36:38 30° 97° (E) 10:40:33 437.505/2401.250
NANOSAT C BR1 27 Feb 10:41:59 10:46:12 83° 75° (ENE) 10:50:26 145.865
POLYITAN 1 27 Feb 10:44:43 10:48:57 83° 257° (WSW) 10:53:14 437.675
QB50P2 27 Feb 10:47:50 10:52:02 70° 258° (WSW) 10:56:18 145.880/145.840
VELOX 1 27 Feb 10:49:20 10:51:34 14° 93° (E) 10:53:50 145.980
AIST 2D 27 Feb 10:52:06 10:55:18 31° 263° (W) 10:58:32 435.315
LO-87 27 Feb 10:52:38 10:56:12 60° 284° (WNW) 10:59:46 145.935 - 145.965
BUGSAT 1 27 Feb 11:01:00 11:04:45 37° 72° (ENE) 11:08:34 437.445
Oscar 19 27 Feb 11:05:35 11:08:22 15° 64° (ENE) 11:11:09 437.125/150
50 SAT 27 Feb 11:12:43 11:14:33 14° 94° (E) 11:16:22 437.505
FO-29 27 Feb 11:15:34 11:20:33 20° 271° (W) 11:25:50 435.910
DUCHIFAT 1 27 Feb 11:50:09 11:52:56 17° 266° (W) 11:55:45 145.980
YUBILEINY 27 Feb 11:55:08 12:00:17 17° 295° (WNW) 12:05:27 435.215
Gurwin Techsat 1B 27 Feb 12:07:20 12:12:01 33° 69° (ENE) 12:16:44 435.225
DX 1 27 Feb 12:07:36 12:11:47 46° 100° (E) 12:15:58 434.975-435.025
ESTCUBE 1 27 Feb 12:09:50 12:13:13 22° 292° (WNW) 12:16:37 437.505/2401.250
SPROUT 27 Feb 12:13:58 12:18:16 71° 283° (WNW) 12:22:31 437.525
UKube-1 27 Feb 12:14:58 12:19:00 38° 99° (E) 12:23:02 .
VELOX 1 27 Feb 12:24:01 12:28:13 45° 287° (WNW) 12:32:27 145.980
AO-85 27 Feb 12:35:36 12:39:31 71° 241° (WSW) 12:43:30 145.980
BUGSAT 1 27 Feb 12:38:07 12:40:16 14° 267° (W) 12:42:24 437.445
Oscar 19 27 Feb 12:42:03 12:47:08 61° 259° (WSW) 12:52:14 437.125/150
50 SAT 27 Feb 12:44:44 12:47:40 26° 288° (WNW) 12:50:36 437.505
ISS 27 Feb 12:49:23 12:52:18 28° 34° (NE) 12:55:11 437.550
Tancredo 1 27 Feb 13:08:51 13:11:58 45° 38° (NE) 13:15:03 437.200
ITUPSAT 1 27 Feb 13:16:53 13:18:21 11° 91° (E) 13:19:48 437.325
BEESAT 27 Feb 13:21:05 13:23:21 13° 92° (E) 13:25:36 436.000
ITAMSAT 1 27 Feb 13:21:45 13:26:13 30° 68° (ENE) 13:30:42 435.822/435.867
AO-7 27 Feb 13:32:06 13:39:50 44° 64° (ENE) 13:47:32 .
PCSat 27 Feb 13:36:07 13:37:54 12° 102° (ESE) 13:39:41 145.827
DX 1 27 Feb 13:45:14 13:47:33 14° 294° (WNW) 13:49:52 434.975-435.025
Gurwin Techsat 1B 27 Feb 13:47:28 13:51:55 27° 264° (W) 13:56:24 435.225
UKube-1 27 Feb 13:52:01 13:54:42 16° 293° (WNW) 13:57:22 .
BEESAT 3 27 Feb 13:55:20 13:59:12 44° 57° (ENE) 14:03:02 437.485
ISS 27 Feb 14:25:56 14:28:40 24° 229° (SW) 14:31:22 437.550
NO-84 27 Feb 14:26:05 14:27:58 15° 123° (ESE) 14:29:58 435.350 FM
BEESAT 2 27 Feb 14:39:02 14:43:02 55° 58° (ENE) 14:46:59 435.950
Tancredo 1 27 Feb 14:46:12 14:47:55 14° 232° (SW) 14:49:39 437.200
ITUPSAT 1 27 Feb 14:51:49 14:56:33 63° 286° (WNW) 15:01:16 437.325
MOZHAYETS 4 27 Feb 14:55:19 14:59:49 51° 100° (E) 15:04:15
BEESAT 27 Feb 14:56:45 15:01:25 54° 287° (WNW) 15:06:03 436.000
ITAMSAT 1 27 Feb 15:01:05 15:05:35 29° 263° (W) 15:10:07 435.822/435.867
KKS-1 27 Feb 15:09:09 15:11:56 16° 94° (E) 15:14:42 437.445
PCSat 27 Feb 15:15:09 15:20:33 77° 297° (WNW) 15:26:00 145.827
AO-7 27 Feb 15:24:53 15:32:32 39° 260° (W) 15:40:13 .
BEESAT 3 27 Feb 15:34:33 15:36:22 13° 252° (WSW) 15:38:12 437.485
STARS 27 Feb 15:36:29 15:38:44 14° 93° (E) 15:40:59 437.465
RS-15 27 Feb 15:55:14 16:06:41 60° 111° (ESE) 16:18:38 29.354- 29.394
CUBESAT XI-V 27 Feb 16:01:36 16:05:55 39° 98° (E) 16:10:12 437.345
NO-84 27 Feb 16:02:27 16:05:19 32° 321° (NW) 16:08:24 435.350 FM
KAITUO 1B 27 Feb 16:09:21 16:10:41 12° 67° (ENE) 16:12:01 145.475/437.950
XW-2F 27 Feb 16:17:04 16:19:40 18° 69° (ENE) 16:22:16 145.980 - 146.000
BEESAT 2 27 Feb 16:19:28 16:20:17 11° 253° (WSW) 16:21:06 435.950
XW-2D 27 Feb 16:22:53 16:25:53 22° 71° (ENE) 16:28:54 145.860 - 145.880
CUTE-I 27 Feb 16:27:21 16:31:58 31° 68° (ENE) 16:36:37 437.470
XW-2B 27 Feb 16:27:50 16:30:58 24° 71° (ENE) 16:34:08 145.730 - 145.750
MOZHAYETS 4 27 Feb 16:34:07 16:36:29 14° 295° (WNW) 16:38:50
XW-2C 27 Feb 16:36:15 16:39:41 31° 73° (ENE) 16:43:08 145.795 - 145.815
NUDT-PHONESAT 27 Feb 16:38:59 16:42:11 27° 72° (ENE) 16:45:24 437.300
KKS-1 27 Feb 16:44:26 16:48:36 40° 288° (WNW) 16:52:47 437.445
M-CUBED/EXP-1 PRIME 27 Feb 16:45:36 16:49:13 34° 104° (ESE) 16:53:04 437.505
LilacSat-2 27 Feb 16:55:29 16:59:19 60° 75° (ENE) 17:03:09 437.200
PCSat 27 Feb 17:03:05 17:04:51 11° 316° (NW) 17:06:36 145.827
STARS 27 Feb 17:11:02 17:15:17 46° 287° (WNW) 17:19:31 437.465
HO-68 27 Feb 17:11:42 17:17:11 24° 61° (ENE) 17:22:38 435.675
XW-2A 27 Feb 17:13:03 17:13:44 10° 67° (ENE) 17:14:24 145.665 - 145.685
DOVE 4 27 Feb 17:13:04 17:17:11 77° 257° (WSW) 17:21:23 437.250
SEEDS 27 Feb 17:37:23 17:38:55 12° 66° (ENE) 17:40:27 437.485
CUBESAT XI-V 27 Feb 17:39:55 17:42:56 18° 293° (WNW) 17:45:58 437.345
KAITUO 1B 27 Feb 17:40:40 17:44:17 42° 261° (W) 17:47:56 145.475/437.950
XW-2F 27 Feb 17:50:19 17:53:36 27° 264° (W) 17:56:54 145.980 - 146.000
XW-2D 27 Feb 17:57:00 17:59:58 21° 265° (W) 18:02:57 145.860 - 145.880
XW-2B 27 Feb 18:02:20 18:05:06 19° 265° (W) 18:07:54 145.730 - 145.750
UWE-3 27 Feb 18:03:43 18:04:10 10° 63° (ENE) 18:04:37 435.000/436.395/437.385
CUTE-I 27 Feb 18:07:20 18:11:56 29° 264° (W) 18:16:34 437.470
RS-15 27 Feb 18:08:29 18:19:39 43° 314° (NW) 18:31:14 29.354- 29.394
XW-2C 27 Feb 18:11:44 18:13:56 15° 267° (W) 18:16:09 145.795 - 145.815
NUDT-PHONESAT 27 Feb 18:13:41 18:16:06 16° 266° (W) 18:18:33 437.300
CUTE 1.7 + AOD 2 27 Feb 18:17:48 18:21:59 55° 75° (ENE) 18:26:10 437.475
M-CUBED/EXP-1 PRIME 27 Feb 18:20:50 18:23:27 17° 295° (WNW) 18:26:12 437.505
XW-2A 27 Feb 18:42:59 18:46:07 35° 262° (W) 18:49:17 145.665 - 145.685
AAUSAT CUBESAT 2 27 Feb 18:51:22 18:55:16 41° 74° (ENE) 18:59:10 437.432
HO-68 27 Feb 18:57:16 19:04:19 61° 258° (WSW) 19:11:25 435.675
AO-73 27 Feb 19:01:57 19:05:35 25° 69° (ENE) 19:09:16 145.935
CUBEBUG 2 27 Feb 19:03:51 19:08:17 82° 78° (ENE) 19:12:53 437.445
Oscar 11 27 Feb 19:05:30 19:08:55 23° 70° (ENE) 19:12:21 .
STRAND 1 27 Feb 19:08:03 19:13:14 86° 103° (ESE) 19:18:22 437.568
SEEDS 27 Feb 19:09:59 19:14:07 52° 260° (W) 19:18:15 437.485
JUGNU 27 Feb 19:31:29 19:33:59 13° 171° (S) 19:36:27 437.505
UWE-3 27 Feb 19:35:29 19:39:55 72° 259° (WSW) 19:44:31 435.000/436.395/437.385
ZACube-1 27 Feb 19:50:13 19:54:40 84° 258° (WSW) 19:59:15 437.345
CUTE 1.7 + AOD 2 27 Feb 19:57:29 19:58:06 10° 269° (W) 19:58:44 437.475
DELFI C3 27 Feb 20:00:09 20:03:30 27° 71° (ENE) 20:06:50 145.870
YUBILEINY 27 Feb 20:07:30 20:15:32 39° 75° (ENE) 20:23:30 435.215
AAUSAT CUBESAT 2 27 Feb 20:28:51 20:30:53 13° 267° (W) 20:32:55 437.432
RS-15 27 Feb 20:29:40 20:36:59 17° 346° (NNW) 20:44:20 29.354- 29.394
AO-73 27 Feb 20:37:54 20:41:40 26° 264° (W) 20:45:31 145.935
Oscar 11 27 Feb 20:41:13 20:44:53 27° 264° (W) 20:48:35 .
FO-29 27 Feb 20:45:18 20:47:23 11° 85° (E) 20:49:25 435.910
PRISM 27 Feb 20:48:08 20:51:58 39° 99° (E) 20:55:49 437.425
STRAND 1 27 Feb 20:50:46 20:51:37 10° 299° (WNW) 20:52:28 437.568
SO-50 27 Feb 21:04:16 21:08:57 79° 300° (WNW) 21:13:36 436.795
JUGNU 27 Feb 21:18:51 21:22:10 15° 181° (S) 21:25:30 437.505
LO-87 27 Feb 21:26:18 21:29:26 31° 73° (ENE) 21:32:36 145.935 - 145.965
ESTCUBE 1 27 Feb 21:30:02 21:33:24 21° 68° (ENE) 21:36:46 437.505/2401.250
DELFI C3 27 Feb 21:35:29 21:38:15 18° 265° (W) 21:41:02 145.870
O/OREOS (USA 219) 27 Feb 21:41:36 21:46:04 84° 292° (WNW) 21:50:35 437.305
TIGRISAT 27 Feb 21:49:02 21:53:45 79° 103° (ESE) 21:58:21 435.000
UNISAT 6 27 Feb 21:49:37 21:54:21 87° 103° (ESE) 21:58:57 437.425
YUBILEINY 27 Feb 22:04:20 22:12:13 40° 273° (W) 22:20:05 435.215
EO-79 27 Feb 22:16:02 22:17:31 12° 92° (E) 22:19:00 145.935-145.965
AIST 2D 27 Feb 22:20:11 22:22:54 20° 95° (E) 22:25:36 435.315
SRMSAT 27 Feb 22:23:53 22:26:54 14° 172° (S) 22:29:56 437.500
PRISM 27 Feb 22:24:43 22:26:53 14° 293° (WNW) 22:29:04 437.425
FO-29 27 Feb 22:26:05 22:33:36 81° 102° (ESE) 22:40:16 435.910
NANOSAT C BR1 27 Feb 22:30:07 22:32:47 16° 93° (E) 22:35:26 145.865
POLYITAN 1 27 Feb 22:33:03 22:36:09 19° 95° (E) 22:39:15 437.675
QB50P2 27 Feb 22:35:54 22:39:18 22° 95° (E) 22:42:40 145.880/145.840
NO-84 27 Feb 22:37:40 22:41:37 44° 43° (NE) 22:45:47 435.350 FM
RS-15 27 Feb 22:48:11 22:56:38 20° 23° (NNE) 23:04:56 29.354- 29.394
SO-50 27 Feb 22:49:28 22:50:08 10° 318° (NW) 22:50:49 436.795
DX 1 27 Feb 23:00:41 23:04:23 28° 70° (ENE) 23:08:04 434.975-435.025
LO-87 27 Feb 23:01:33 23:02:59 12° 267° (W) 23:04:25 145.935 - 145.965
SPROUT 27 Feb 23:04:18 23:08:28 59° 75° (ENE) 23:12:41 437.525
ESTCUBE 1 27 Feb 23:05:58 23:09:59 32° 263° (W) 23:14:00 437.505/2401.250
UKube-1 27 Feb 23:07:11 23:10:37 24° 69° (ENE) 23:14:03 .
JUGNU 27 Feb 23:08:18 23:10:21 12° 191° (S) 23:12:26 437.505
50 SAT 27 Feb 23:15:20 23:18:47 69° 76° (ENE) 23:22:16 437.505
VELOX 1 27 Feb 23:18:04 23:22:26 74° 258° (WSW) 23:26:50 145.980
DUCHIFAT 1 27 Feb 23:34:58 23:39:15 89° 95° (E) 23:43:30 145.980
EO-79 27 Feb 23:49:22 23:53:32 50° 286° (WNW) 23:57:40 145.935-145.965
AIST 2D 27 Feb 23:53:27 23:55:59 19° 290° (WNW) 23:58:31 435.315
NANOSAT C BR1 28 Feb 00:04:40 00:08:35 36° 288° (WNW) 00:12:29 145.865
PCSat 28 Feb 00:05:45 00:11:01 47° 59° (ENE) 00:16:13 145.827
POLYITAN 1 28 Feb 00:08:10 00:11:56 30° 289° (WNW) 00:15:41 437.675
QB50P2 28 Feb 00:11:26 00:15:01 26° 290° (WNW) 00:18:34 145.880/145.840
SRMSAT 28 Feb 00:11:49 00:15:18 16° 183° (S) 00:18:46 437.500
FO-29 28 Feb 00:12:49 00:17:32 18° 302° (WNW) 00:22:00 435.910
NO-84 28 Feb 00:15:52 00:19:08 22° 236° (SW) 00:22:30 435.350 FM
